When you browse on this site, cookies collect data to enhance your experience and personalize the content and advertising you see.
Visit our Privacy Policy to learn more. By continuing to use the site, you agree to this use of cookies and data.
  • In Germany
  • List of Countries
  • For 7 days
  • Water Temperature
  • Weather Map
  • Weather Widgets
  • user-avatar
    Login

    Hourly Weather Gyula

    Today, 23 February, Sunday

    Time Temperature Precipitation Wind Pressure Humidity
    00:00 +3°C° 0 mm 4 mps 763 mmHg 71%
    01:00 +3°C° 0 mm 4 mps 763 mmHg 71%
    02:00 +3°C° 0 mm 4 mps 762 mmHg 71%
    03:00 +2°C° 0 mm 5 mps 762 mmHg 71%
    04:00 +2°C° 0 mm 5 mps 761 mmHg 71%
    05:00 +2°C° 0 mm 5 mps 761 mmHg 71%
    06:00 +3°C° 0 mm 4 mps 761 mmHg 71%
    07:00 +3°C° 0 mm 4 mps 761 mmHg 71%
    08:00 +3°C° 0.1 mm 4 mps 761 mmHg 70%
    09:00 +4°C° 0.1 mm 4 mps 760 mmHg 69%
    10:00 +5°C° 0.1 mm 4 mps 760 mmHg 68%
    11:00 +6°C° 0 mm 4 mps 760 mmHg 67%
    12:00 +7°C° 0 mm 4 mps 759 mmHg 66%
    13:00 +8°C° 0 mm 4 mps 759 mmHg 65%
    14:00 +8°C° 0.1 mm 4 mps 758 mmHg 69%
    15:00 +8°C° 0.1 mm 4 mps 757 mmHg 72%
    16:00 +8°C° 0.1 mm 4 mps 756 mmHg 76%
    17:00 +8°C° 0 mm 4 mps 756 mmHg 74%
    18:00 +8°C° 0 mm 4 mps 756 mmHg 73%
    19:00 +8°C° 0 mm 5 mps 756 mmHg 71%
    20:00 +8°C° 0.1 mm 5 mps 755 mmHg 69%
    21:00 +8°C° 0.1 mm 6 mps 754 mmHg 67%
    22:00 +8°C° 0.1 mm 6 mps 753 mmHg 65%
    23:00 +8°C° 0 mm 7 mps 752 mmHg 63%

    Tomorrow, 24 February, Monday

    Time Temperature Precipitation Wind Pressure Humidity
    00:00 +8°C° 0 mm 7 mps 752 mmHg 62%
    01:00 +7°C° 0 mm 8 mps 751 mmHg 61%
    02:00 +7°C° 0.1 mm 8 mps 751 mmHg 64%
    03:00 +7°C° 0.1 mm 8 mps 751 mmHg 68%
    04:00 +7°C° 0.1 mm 8 mps 751 mmHg 71%
    05:00 +7°C° 0.3 mm 8 mps 752 mmHg 65%
    06:00 +6°C° 0.3 mm 8 mps 753 mmHg 60%
    07:00 +6°C° 0.3 mm 9 mps 754 mmHg 54%
    08:00 +6°C° 0 mm 9 mps 755 mmHg 54%
    09:00 +6°C° 0 mm 9 mps 756 mmHg 54%
    10:00 +6°C° 0 mm 9 mps 757 mmHg 54%
    11:00 +7°C° 0 mm 8 mps 757 mmHg 50%
    12:00 +7°C° 0 mm 8 mps 757 mmHg 46%
    13:00 +9°C° 0 mm 7 mps 757 mmHg 42%
    14:00 +8°C° 0 mm 6 mps 757 mmHg 45%
    15:00 +8°C° 0 mm 5 mps 757 mmHg 48%
    16:00 +8°C° 0 mm 4 mps 757 mmHg 51%
    17:00 +8°C° 0 mm 3 mps 757 mmHg 55%
    18:00 +7°C° 0 mm 2 mps 757 mmHg 60%
    19:00 +6°C° 0 mm 2 mps 758 mmHg 65%
    20:00 +5°C° 0 mm 2 mps 757 mmHg 67%
    21:00 +5°C° 0 mm 2 mps 757 mmHg 68%
    22:00 +4°C° 0 mm 3 mps 757 mmHg 69%
    23:00 +3°C° 0 mm 3 mps 757 mmHg 70%

    Day after tomorrow, 25 February, Tuesday

    Time Temperature Precipitation Wind Pressure Humidity
    00:00 +3°C° 0 mm 3 mps 757 mmHg 71%
    01:00 +3°C° 0 mm 3 mps 756 mmHg 73%
    02:00 +3°C° 0 mm 4 mps 756 mmHg 71%
    03:00 +3°C° 0 mm 4 mps 755 mmHg 70%
    04:00 +2°C° 0 mm 5 mps 754 mmHg 68%
    05:00 +3°C° 0 mm 4 mps 754 mmHg 68%
    06:00 +1°C° 0 mm 4 mps 754 mmHg 68%
    07:00 +1°C° 0 mm 4 mps 753 mmHg 68%
    08:00 +4°C° 0 mm 4 mps 753 mmHg 61%
    09:00 +6°C° 0 mm 4 mps 752 mmHg 55%
    10:00 +8°C° 0 mm 4 mps 752 mmHg 49%
    11:00 +9°C° 0 mm 5 mps 751 mmHg 49%
    12:00 +10°C° 0 mm 5 mps 750 mmHg 50%
    13:00 +12°C° 0 mm 5 mps 750 mmHg 51%
    14:00 +12°C° 0 mm 5 mps 749 mmHg 54%
    15:00 +12°C° 0 mm 4 mps 749 mmHg 58%
    16:00 +12°C° 0 mm 4 mps 748 mmHg 61%
    17:00 +12°C° 0 mm 4 mps 748 mmHg 64%
    18:00 +11°C° 0 mm 4 mps 748 mmHg 68%
    19:00 +10°C° 0 mm 4 mps 748 mmHg 71%
    20:00 +10°C° 0 mm 4 mps 747 mmHg 72%
    21:00 +10°C° 0 mm 4 mps 747 mmHg 73%
    22:00 +10°C° 0 mm 4 mps 747 mmHg 74%
    23:00 +10°C° 0.2 mm 4 mps 746 mmHg 77%

    26 February, Wednesday

    Time Temperature Precipitation Wind Pressure Humidity
    00:00 +8°C° 0.2 mm 4 mps 746 mmHg 79%
    01:00 +8°C° 0.2 mm 4 mps 745 mmHg 82%
    02:00 +8°C° 0.2 mm 5 mps 744 mmHg 81%
    03:00 +8°C° 0.2 mm 5 mps 744 mmHg 80%
    04:00 +8°C° 0.2 mm 5 mps 743 mmHg 80%
    05:00 +7°C° 0 mm 5 mps 742 mmHg 78%
    06:00 +7°C° 0 mm 5 mps 742 mmHg 77%
    07:00 +7°C° 0 mm 6 mps 741 mmHg 75%
    08:00 +8°C° 0.2 mm 6 mps 740 mmHg 76%
    09:00 +8°C° 0.2 mm 6 mps 740 mmHg 76%
    10:00 +9°C° 0.2 mm 6 mps 740 mmHg 76%
    11:00 +9°C° 0.8 mm 5 mps 739 mmHg 77%
    12:00 +9°C° 0.8 mm 5 mps 739 mmHg 78%
    13:00 +10°C° 0.8 mm 4 mps 738 mmHg 79%
    14:00 +11°C° 0.2 mm 4 mps 738 mmHg 78%
    15:00 +11°C° 0.2 mm 4 mps 738 mmHg 77%
    16:00 +11°C° 0.2 mm 3 mps 737 mmHg 75%
    17:00 +10°C° 1.7 mm 3 mps 738 mmHg 81%
    18:00 +9°C° 1.7 mm 2 mps 738 mmHg 86%
    19:00 +7°C° 1.7 mm 2 mps 738 mmHg 91%
    20:00 +7°C° 0 mm 2 mps 739 mmHg 91%
    21:00 +8°C° 0 mm 1 mps 739 mmHg 91%
    22:00 +7°C° 0 mm 1 mps 740 mmHg 91%
    23:00 +7°C° 0.1 mm 1 mps 740 mmHg 90%

    27 February, Thursday

    Time Temperature Precipitation Wind Pressure Humidity
    00:00 +7°C° 0.1 mm 1 mps 740 mmHg 90%
    01:00 +6°C° 0.1 mm 1 mps 740 mmHg 90%
    02:00 +5°C° 0 mm 2 mps 740 mmHg 89%
    03:00 +4°C° 0 mm 3 mps 740 mmHg 89%
    04:00 +4°C° 0 mm 4 mps 741 mmHg 88%
    05:00 +3°C° 0.1 mm 5 mps 741 mmHg 83%
    06:00 +3°C° 0.1 mm 5 mps 742 mmHg 78%
    07:00 +2°C° 0.1 mm 6 mps 743 mmHg 73%
    08:00 +3°C° 0 mm 6 mps 743 mmHg 70%
    09:00 +3°C° 0 mm 7 mps 744 mmHg 67%
    10:00 +4°C° 0 mm 7 mps 745 mmHg 63%
    11:00 +4°C° 0 mm 7 mps 745 mmHg 61%
    12:00 +5°C° 0 mm 7 mps 745 mmHg 59%
    13:00 +5°C° 0 mm 7 mps 746 mmHg 57%
    14:00 +5°C° 0 mm 7 mps 746 mmHg 57%
    15:00 +5°C° 0 mm 6 mps 747 mmHg 58%
    16:00 +5°C° 0 mm 6 mps 747 mmHg 58%
    17:00 +5°C° 0 mm 5 mps 748 mmHg 61%
    18:00 +3°C° 0 mm 5 mps 749 mmHg 64%
    19:00 +3°C° 0 mm 5 mps 749 mmHg 66%
    20:00 +3°C° 0 mm 4 mps 750 mmHg 68%
    21:00 +1°C° 0 mm 4 mps 750 mmHg 70%
    22:00 +2°C° 0 mm 3 mps 751 mmHg 72%
    23:00 +1°C° 0 mm 3 mps 751 mmHg 74%

    28 February, Friday

    Time Temperature Precipitation Wind Pressure Humidity
    00:00 +1°C° 0 mm 3 mps 751 mmHg 75%
    01:00 0°C° 0 mm 3 mps 751 mmHg 77%
    02:00 +1°C° 0 mm 2 mps 751 mmHg 78%
    03:00 +1°C° 0 mm 2 mps 752 mmHg 78%
    04:00 +1°C° 0 mm 2 mps 752 mmHg 79%
    05:00 +2°C° 0 mm 1 mps 752 mmHg 78%
    06:00 +2°C° 0 mm 1 mps 753 mmHg 78%
    07:00 +1°C° 0 mm 0 mps 753 mmHg 78%
    08:00 +3°C° 0 mm 1 mps 753 mmHg 72%
    09:00 +4°C° 0 mm 2 mps 754 mmHg 66%
    10:00 +4°C° 0 mm 3 mps 754 mmHg 59%
    11:00 +5°C° 0 mm 3 mps 754 mmHg 56%
    12:00 +7°C° 0 mm 3 mps 754 mmHg 52%
    13:00 +8°C° 0 mm 3 mps 754 mmHg 48%
    14:00 +9°C° 0 mm 3 mps 754 mmHg 51%
    15:00 +9°C° 0 mm 3 mps 754 mmHg 54%
    16:00 +9°C° 0 mm 3 mps 754 mmHg 57%
    17:00 +8°C° 0 mm 2 mps 754 mmHg 63%
    18:00 +7°C° 0 mm 2 mps 754 mmHg 69%
    19:00 +6°C° 0 mm 2 mps 754 mmHg 75%
    20:00 +6°C° 0 mm 2 mps 754 mmHg 75%
    21:00 +6°C° 0 mm 2 mps 755 mmHg 76%
    22:00 +5°C° 0 mm 3 mps 755 mmHg 76%
    23:00 +4°C° 0 mm 3 mps 754 mmHg 75%
    Show more